TimeMST,TemperatureF,Dew PointF,Humidity,Sea Level PressureIn,VisibilityMPH,Wind Direction,Wind SpeedMPH,Gust SpeedMPH,PrecipitationIn,Events,Conditions,WindDirDegrees,DateUTC
12:15 AM,19.4,14.0,80,30.14,10.0,North,5.8,-,N/A,,Overcast,350,2013-01-31 07:15:00
12:35 AM,19.4,15.8,86,30.13,10.0,North,5.8,-,N/A,,Overcast,350,2013-01-31 07:35:00
12:55 AM,19.4,15.8,86,30.13,10.0,North,6.9,-,N/A,,Overcast,10,2013-01-31 07:55:00
1:15 AM,19.4,15.8,86,30.12,10.0,North,4.6,-,N/A,,Overcast,350,2013-01-31 08:15:00
1:55 AM,19.4,17.6,93,30.13,10.0,NNE,3.5,-,N/A,,Overcast,20,2013-01-31 08:55:00
2:15 AM,19.4,15.8,86,30.12,9.0,North,6.9,-,N/A,,Mostly Cloudy,350,2013-01-31 09:15:00
2:35 AM,19.4,15.8,86,30.13,8.0,North,6.9,-,N/A,,Overcast,360,2013-01-31 09:35:00
2:55 AM,19.4,15.8,86,30.12,8.0,North,3.5,-,N/A,,Overcast,350,2013-01-31 09:55:00
3:15 AM,19.4,15.8,86,30.12,5.0,WSW,3.5,-,N/A,,Overcast,240,2013-01-31 10:15:00
3:55 AM,19.4,10.4,68,30.13,10.0,North,5.8,-,N/A,,Overcast,360,2013-01-31 10:55:00
4:15 AM,24.8,19.4,80,30.13,9.0,WSW,15.0,21.9,N/A,,Overcast,250,2013-01-31 11:15:00
4:35 AM,24.8,19.4,80,30.16,10.0,NNE,6.9,-,N/A,,Overcast,20,2013-01-31 11:35:00
4:55 AM,21.2,19.4,93,30.17,10.0,North,4.6,-,N/A,,Overcast,350,2013-01-31 11:55:00
5:15 AM,24.8,23.0,93,30.16,10.0,WSW,11.5,-,N/A,,Overcast,250,2013-01-31 12:15:00
5:55 AM,21.2,17.6,86,30.19,10.0,ENE,5.8,-,N/A,,Overcast,70,2013-01-31 12:55:00
6:15 AM,21.2,17.6,86,30.19,10.0,Calm,Calm,-,N/A,,Mostly Cloudy,0,2013-01-31 13:15:00
6:35 AM,19.4,10.4,68,30.19,10.0,NW,3.5,-,N/A,,Scattered Clouds,310,2013-01-31 13:35:00
6:55 AM,17.6,12.2,79,30.19,10.0,North,6.9,-,N/A,,Clear,360,2013-01-31 13:55:00
7:35 AM,15.8,10.4,79,30.22,10.0,North,5.8,-,N/A,,Clear,350,2013-01-31 14:35:00
7:55 AM,14.0,8.6,79,30.24,10.0,NNW,8.1,-,N/A,,Partly Cloudy,340,2013-01-31 14:55:00
8:15 AM,15.8,10.4,79,30.25,10.0,NNE,5.8,-,N/A,,Mostly Cloudy,20,2013-01-31 15:15:00
8:35 AM,17.6,14.0,86,30.26,10.0,North,8.1,-,N/A,,Scattered Clouds,350,2013-01-31 15:35:00
8:55 AM,17.6,10.4,73,30.27,10.0,NNE,5.8,-,N/A,,Mostly Cloudy,20,2013-01-31 15:55:00
9:15 AM,17.6,10.4,73,30.29,10.0,ENE,8.1,-,N/A,,Mostly Cloudy,60,2013-01-31 16:15:00
9:35 AM,23.0,15.8,74,30.29,10.0,Calm,Calm,-,N/A,,Scattered Clouds,0,2013-01-31 16:35:00
9:55 AM,28.4,21.2,74,30.30,10.0,SW,12.7,19.6,N/A,,Partly Cloudy,230,2013-01-31 16:55:00
10:15 AM,28.4,19.4,69,30.30,10.0,WSW,10.4,18.4,N/A,,Clear,240,2013-01-31 17:15:00
10:35 AM,30.2,19.4,64,30.31,10.0,WSW,16.1,20.7,N/A,,Clear,250,2013-01-31 17:35:00
10:55 AM,30.2,17.6,60,30.31,10.0,WSW,16.1,20.7,N/A,,Clear,240,2013-01-31 17:55:00
11:15 AM,30.2,17.6,60,30.31,10.0,WSW,12.7,19.6,N/A,,Partly Cloudy,240,2013-01-31 18:15:00
11:35 AM,30.2,15.8,55,30.31,10.0,WSW,10.4,-,N/A,,Mostly Cloudy,240,2013-01-31 18:35:00
12:15 PM,30.2,17.6,60,30.30,10.0,WSW,15.0,20.7,N/A,,Overcast,240,2013-01-31 19:15:00
12:35 PM,32.0,15.8,51,30.29,10.0,WSW,12.7,19.6,N/A,,Overcast,240,2013-01-31 19:35:00
12:55 PM,32.0,15.8,51,30.28,10.0,SW,11.5,-,N/A,,Partly Cloudy,230,2013-01-31 19:55:00
1:15 PM,30.2,15.8,55,30.27,10.0,WSW,8.1,-,N/A,,Partly Cloudy,250,2013-01-31 20:15:00
1:35 PM,30.2,15.8,55,30.27,10.0,West,6.9,-,N/A,,Mostly Cloudy,260,2013-01-31 20:35:00
2:15 PM,33.8,15.8,48,30.26,10.0,Calm,Calm,-,N/A,,Clear,0,2013-01-31 21:15:00
2:35 PM,32.0,15.8,51,30.26,10.0,South,4.6,-,N/A,,Clear,170,2013-01-31 21:35:00
2:55 PM,32.0,15.8,51,30.26,10.0,South,5.8,-,N/A,,Clear,180,2013-01-31 21:55:00
3:15 PM,32.0,15.8,51,30.26,10.0,South,4.6,-,N/A,,Clear,180,2013-01-31 22:15:00
3:35 PM,32.0,14.0,48,30.25,10.0,SSE,3.5,-,N/A,,Clear,160,2013-01-31 22:35:00
3:55 PM,30.2,14.0,51,30.25,10.0,SE,3.5,-,N/A,,Clear,130,2013-01-31 22:55:00
4:15 PM,30.2,15.8,55,30.25,10.0,ESE,4.6,-,N/A,,Clear,120,2013-01-31 23:15:00
4:35 PM,30.2,14.0,51,30.25,10.0,East,4.6,-,N/A,,Clear,90,2013-01-31 23:35:00
5:15 PM,28.4,12.2,51,30.25,10.0,SE,3.5,-,N/A,,Clear,140,2013-02-01 00:15:00
5:35 PM,26.6,15.8,64,30.25,10.0,Calm,Calm,-,N/A,,Clear,0,2013-02-01 00:35:00
6:15 PM,23.0,10.4,59,30.27,10.0,North,3.5,-,N/A,,Clear,350,2013-02-01 01:15:00
6:35 PM,23.0,12.2,63,30.28,10.0,North,4.6,-,N/A,,Clear,10,2013-02-01 01:35:00
6:55 PM,19.4,12.2,74,30.29,10.0,SE,4.6,-,N/A,,Clear,140,2013-02-01 01:55:00
7:15 PM,15.8,8.6,73,30.29,10.0,SSE,5.8,-,N/A,,Clear,160,2013-02-01 02:15:00
7:35 PM,15.8,6.8,68,30.29,10.0,Calm,Calm,-,N/A,,Clear,0,2013-02-01 02:35:00
7:55 PM,17.6,8.6,68,30.31,10.0,Calm,Calm,-,N/A,,Clear,0,2013-02-01 02:55:00
8:15 PM,15.8,8.6,73,30.31,10.0,NE,4.6,-,N/A,,Partly Cloudy,50,2013-02-01 03:15:00
8:35 PM,15.8,10.4,79,30.31,10.0,NE,6.9,-,N/A,,Mostly Cloudy,50,2013-02-01 03:35:00
9:15 PM,12.2,3.2,67,30.31,10.0,East,4.6,-,N/A,,Mostly Cloudy,90,2013-02-01 04:15:00
9:35 PM,12.2,12.2,100,30.32,10.0,Calm,Calm,-,N/A,,Overcast,0,2013-02-01 04:35:00
9:55 PM,12.2,-2.2,53,30.32,10.0,Calm,Calm,-,N/A,,Mostly Cloudy,0,2013-02-01 04:55:00
10:15 PM,12.2,6.8,79,30.32,10.0,Calm,Calm,-,N/A,,Partly Cloudy,0,2013-02-01 05:15:00
10:35 PM,8.6,1.4,73,30.32,10.0,Calm,Calm,-,N/A,,Clear,0,2013-02-01 05:35:00
11:15 PM,10.4,6.8,85,30.32,10.0,Calm,Calm,-,N/A,,Clear,0,2013-02-01 06:15:00
11:35 PM,8.6,-2.2,62,30.32,10.0,Calm,Calm,-,N/A,,Clear,0,2013-02-01 06:35:00